[[{"header":{"parameterUnit":"m.s-1","parameterCategory":1,"la1":30.2991,"la2":30.254,"lo1":-89.0895,"lo2":-89.0444,"dy":0.0017,"dx":0.0017,"nx":28,"ny":28,"refTime":"2023-09-12T03:00:00:Z","depth":0,"parameterNumber":2,"parameterNumberName":"U-component_of_WINDS"},"data":[0,0,0,0,0,0,0,0,0,0,0,0,0,0,0,0,0,0,0,0,0,0,0,0,0,0,0,0,0,0,0,0,0,0,0,0,0,0,0,0,0,0,0,0,0,0,0,0,0,0,0,0,0,0,0,0,0,0,0.0157,0.0157,0,0.0142,0.0142,0.0142,0.0143,0.0143,0.0143,0.0144,0.0128,0.0128,0.0127,0,0,0,0,0,0,0,0,0,0,0,0,0,0.0183,0.0183,0.0157,0.0157,0.0157,0.0142,0.0142,0.0142,0.0143,0.0143,0.0143,0.0144,0.0128,0.0128,0.0127,0,0,0,0,0,0,0,0,0,0,0,0,0,0.0171,0.0183,0.0157,0.0155,0.0155,0.0143,0.0142,0.0142,0.0143,0.0143,0.0143,0.0144,0.0129,0.0128,0.0127,0.0115,0,0,0.0124,0.0124,0,0,0,0,0,0,0,0,0.0171,0.017,0.0156,0.0155,0.0155,0.0145,0.0146,0.0133,0.0143,0.0147,0.0144,0.0144,0.0133,0.0132,0.0129,0.0114,0.0113,0.0124,0.0123,0.0123,0.0123,0,0,0,0,0,0,0,0.0172,0.017,0.0151,0.0155,0.0155,0.0155,0.0153,0.0143,0.0139,0.0147,0.0147,0.0145,0.0133,0.013,0.0128,0.0113,0.0124,0.0123,0.0123,0.0122,0.0086,0.0086,0,0,0,0,0,0,0.0174,0.0171,0.0152,0.0151,0.0164,0.0154,0.0152,0.0148,0.0139,0.0138,0.0145,0.0145,0.0131,0.0129,0.0128,0.0112,0.0123,0.0122,0.0122,0.0087,0.0086,0.0086,0,0,0,0,0,0,0.0174,0.0172,0.0152,0.0161,0.0158,0.0153,0.0148,0.0147,0.0144,0.0137,0.0137,0.0142,0.0131,0.0129,0.0118,0.0112,0.0122,0.0121,0.0087,0.0087,0.0086,0.0081,0,0,0,0,0,0,0.0175,0.0172,0.0168,0.0161,0.0158,0.0143,0.0148,0.0147,0.0142,0.0142,0.0135,0.0134,0.0131,0.0119,0.0117,0.011,0.012,0.0088,0.0087,0.0086,0.0082,0.0081,0.0079,0,0,0,0,0,0.0176,0.0168,0.0168,0.0166,0.0153,0.0143,0.0141,0.0139,0.0142,0.0137,0.0133,0.0134,0.0113,0.0118,0.0115,0.0109,0.0088,0.0087,0.0086,0.0082,0.0081,0.0079,0,0,0,0,0,0,0.0174,0.0167,0.0167,0.0156,0.015,0.0143,0.0137,0.0137,0.013,0.013,0.0128,0.0126,0.0114,0.011,0.0116,0.0096,0.0101,0.0099,0.0099,0.0097,0.0096,0.0097,0.0119,0,0,0,0,0,0.0173,0.0166,0.0159,0.015,0.0147,0.0142,0.0138,0.0137,0.013,0.0127,0.0123,0.0116,0.0107,0.0102,0.0094,0.0081,0.0079,0.0075,0.0074,0.0073,0.0072,0.0063,0.0061,0.0083,0.0083,0.0083,0,0,0.0169,0.0164,0.016,0.0149,0.0145,0.0136,0.014,0.0132,0.0126,0.0126,0.0115,0.0111,0.0103,0.0091,0.0085,0.0087,0.0065,0.0072,0.0071,0.007,0.0062,0.006,0.0058,0.0082,0.0082,0.0082,0,0,0.0159,0.0155,0.0146,0.0141,0.0133,0.013,0.0128,0.012,0.0118,0.0106,0.0106,0.0098,0.0085,0.0079,0.0074,0.0059,0.0059,0.0057,0.005,0.0042,0.004,0.0038,0.0032,0.003,0.0056,0.0056,0.0056,0,0.0155,0.0144,0.0141,0.0133,0.0127,0.0127,0.0118,0.0113,0.0103,0.0099,0.0102,0.0083,0.0078,0.0064,0.006,0.0057,0.0053,0.0058,0.004,0.0039,0.0037,0.0031,0.0029,0.0055,0.0055,0.0055,0.0055,0,0.0139,0.0131,0.0125,0.0115,0.0109,0.01,0.0096,0.009,0.0089,0.0085,0.0072,0.0066,0.0056,0.0053,0.0052,0.0037,0.0039,0.0041,0.0046,0.0035,0.0029,0.0027,0.0055,0.0055,0.0055,0.0055,0,0,0.0128,0.0116,0.0114,0.0109,0.01,0.0093,0.0083,0.0073,0.0068,0.0061,0.0052,0.004,0.0041,0.0035,0.0034,0.0026,0.0013,0.0029,0.0029,0.0025,-0.0005,-0.0007,-0.0009,0.0014,0.0013,0.0013,-0.0004,0,0.0115,0.0099,0.0096,0.0081,0.0072,0.0071,0.0063,0.0056,0.0052,0.0043,0.0039,0.0029,0.0033,0.0029,0.0022,0.0017,0.0007,0.0018,0.0004,0.0004,0.0005,-0.0012,-0.0014,-0.003,-0.0006,-0.0007,-0.0007,0,0.0099,0.0091,0.0075,0.0066,0.0062,0.0055,0.0045,0.0037,0.0029,0.0026,0.0019,0.0018,0.0007,0.0012,-0.0004,0.0003,-0.0003,-0.0006,-0.0007,-0.0009,-0.0003,-0.0016,-0.0035,-0.0038,-0.0011,-0.001,-0.001,0,0.0091,0.0076,0.0065,0.006,0.005,0.0044,0.0039,0.0031,0.0025,0.0016,0.0012,0.0002,-0.0004,-0.0012,-0.0017,-0.0012,-0.0033,-0.0028,-0.0036,-0.0036,-0.0041,-0.0041,-0.0063,-0.0043,-0.0043,-0.0043,-0.0043,0,0.0077,0.0067,0.0061,0.0053,0.0041,0.0038,0.0026,0.0021,0.0014,0.0005,0.0003,-0.0005,-0.001,-0.002,-0.0024,-0.0037,-0.004,-0.0043,-0.0044,-0.0043,-0.0043,-0.0047,-0.0047,-0.0044,-0.0044,-0.0044,-0.0044,0,0.0066,0.0062,0.0048,0.0039,0.0036,0.0028,0.0019,0.0012,0.0007,-0.0004,-0.0007,-0.0014,-0.0026,-0.0031,-0.0045,-0.0048,-0.0064,-0.0064,-0.0061,-0.0062,-0.0071,-0.007,-0.0097,-0.0101,-0.0078,-0.0079,-0.0079,0,0.0058,0.005,0.0039,0.0033,0.0028,0.0018,0.0012,0.0007,0.0,-0.0011,-0.0017,-0.0029,-0.0039,-0.0057,-0.0064,-0.0076,-0.0076,-0.0085,-0.0078,-0.0078,-0.0078,-0.0078,-0.0079,-0.0086,-0.0087,-0.0087,-0.0087,0,0.0042,0.004,0.0031,0.002,0.0012,0.0004,-0.0004,-0.001,-0.0016,-0.0023,-0.0035,-0.0043,-0.0058,-0.007,-0.0082,-0.0088,-0.0089,-0.0089,-0.0092,-0.0092,-0.009,-0.0093,-0.0066,-0.0088,-0.0088,-0.0088,-0.0088,-0.0088,0.0031,0.0024,0.0015,0.0004,-0.0003,-0.0011,-0.0019,-0.0025,-0.0035,-0.0048,-0.005,-0.0063,-0.0073,-0.0089,-0.0096,-0.0107,-0.0105,-0.0108,-0.011,-0.0111,-0.0112,-0.0088,-0.0109,-0.0109,-0.0109,-0.0109,-0.0109,0,0.0015,0.0009,-0.0001,-0.0013,-0.0022,-0.0022,-0.0031,-0.0039,-0.0051,-0.0059,-0.0069,-0.0084,-0.0096,-0.0104,-0.0117,-0.0124,-0.0125,-0.0128,-0.0128,-0.0129,-0.0112,-0.0109,-0.0127,-0.0127,-0.0127,-0.0127,-0.0127,-0.0127,0.0005,-0.0008,-0.0012,-0.0029,-0.0035,-0.0048,-0.0054,-0.0062,-0.0069,-0.0086,-0.0096,-0.0101,-0.011,-0.0124,-0.0136,-0.0138,-0.0143,-0.0146,-0.0148,-0.0132,-0.013,-0.0128,-0.0126,-0.0147,-0.0147,-0.0164,-0.0165,-0.0165]},{"header":{"parameterUnit":"m.s-1","parameterCategory":1,"la1":30.2991,"la2":30.254,"lo1":-89.0895,"lo2":-89.0444,"dy":0.0017,"dx":0.0017,"nx":28,"ny":28,"refTime":"2023-09-12T03:00:00:Z","depth":0,"parameterNumber":3,"parameterNumberName":"V-component_of_WINDS"},"data":[0,0,0,0,0,0,0,0,0,0,0,0,0,0,0,0,0,0,0,0,0,0,0,0,0,0,0,0,0,0,0,0,0,0,0,0,0,0,0,0,0,0,0,0,0,0,0,0,0,0,0,0,0,0,0,0,0,0,4.3652,4.3653,0,4.3678,4.3678,4.3678,4.3622,4.3621,4.3619,4.3617,4.364,4.3642,4.3644,0,0,0,0,0,0,0,0,0,0,0,0,0,4.3551,4.3553,4.3652,4.3653,4.3653,4.3678,4.3678,4.3679,4.3623,4.3621,4.3618,4.3616,4.3639,4.3642,4.3645,0,0,0,0,0,0,0,0,0,0,0,0,0,4.3587,4.3554,4.3652,4.3628,4.3626,4.3678,4.3678,4.3679,4.3623,4.3621,4.3618,4.3615,4.3638,4.3642,4.3645,4.372,0,0,4.3656,4.3657,0,0,0,0,0,0,0,0,4.3585,4.3591,4.3631,4.363,4.3628,4.3644,4.3651,4.3692,4.3624,4.3624,4.3617,4.3614,4.3643,4.3646,4.3657,4.3721,4.3722,4.3656,4.3658,4.3659,4.366,0,0,0,0,0,0,0,4.3583,4.359,4.3662,4.3632,4.363,4.3615,4.3617,4.3658,4.3648,4.3624,4.362,4.3624,4.3642,4.3654,4.3657,4.3722,4.3656,4.3659,4.3661,4.3662,4.3848,4.385,0,0,0,0,0,0,4.3584,4.3588,4.3661,4.3663,4.36,4.3619,4.3621,4.3642,4.3648,4.3646,4.3626,4.3621,4.3649,4.3653,4.3658,4.3744,4.3659,4.3663,4.3664,4.3845,4.3848,4.3851,0,0,0,0,0,0,4.3582,4.3591,4.366,4.3625,4.3632,4.3623,4.3647,4.3644,4.3655,4.365,4.3647,4.364,4.3647,4.3653,4.3705,4.3744,4.3664,4.3667,4.3841,4.3846,4.385,4.3919,0,0,0,0,0,0,4.3579,4.3591,4.362,4.3626,4.3634,4.3709,4.3649,4.3646,4.3662,4.3656,4.3662,4.3661,4.3646,4.37,4.3708,4.3747,4.367,4.3838,4.3843,4.3848,4.3913,4.3925,4.3936,0,0,0,0,0,4.3576,4.3638,4.3622,4.3631,4.3671,4.3711,4.3716,4.3698,4.3665,4.3694,4.369,4.3661,4.3739,4.3706,4.3714,4.3755,4.3835,4.3842,4.3848,4.3908,4.3923,4.3935,0,0,0,0,0,0,4.3636,4.3639,4.362,4.3687,4.3699,4.3701,4.3737,4.3714,4.3735,4.3729,4.3704,4.3706,4.3763,4.3764,4.3727,4.3828,4.3781,4.379,4.3824,4.3838,4.3849,4.3847,4.3673,0,0,0,0,0,4.3658,4.3691,4.3691,4.3749,4.3757,4.3746,4.3763,4.3748,4.3759,4.3764,4.3764,4.3775,4.3802,4.382,4.3845,4.3914,4.3913,4.3946,4.3957,4.3967,4.3974,4.4009,4.4023,4.3873,4.3872,4.3872,0,0,4.3702,4.3707,4.3729,4.3761,4.3769,4.3803,4.3751,4.3789,4.3813,4.3769,4.3818,4.3819,4.383,4.389,4.3917,4.3893,4.4015,4.3975,4.3982,4.3984,4.4017,4.4031,4.4043,4.3877,4.3876,4.3875,0,0,4.3798,4.3807,4.3855,4.3865,4.3878,4.387,4.3882,4.3888,4.3887,4.3936,4.3903,4.3931,4.3979,4.3988,4.3998,4.4098,4.4071,4.4107,4.4165,4.4199,4.4211,4.4221,4.4255,4.4268,4.4114,4.4115,4.4115,0,4.385,4.3901,4.3883,4.3923,4.3937,4.3901,4.3949,4.3959,4.3979,4.3989,4.3963,4.4021,4.4026,4.4087,4.4111,4.4122,4.4133,4.4105,4.4211,4.4221,4.423,4.4262,4.4275,4.4119,4.4118,4.4118,4.4117,0,4.3964,4.4,4.4037,4.4058,4.4077,4.4121,4.4108,4.4129,4.4113,4.4108,4.4157,4.4162,4.4186,4.42,4.4185,4.4259,4.4244,4.4215,4.4168,4.4249,4.4278,4.4291,4.4125,4.4123,4.4122,4.4121,0,0,4.4098,4.4109,4.4123,4.4132,4.4143,4.417,4.4212,4.4237,4.4254,4.4269,4.4303,4.4344,4.4317,4.4329,4.4314,4.4344,4.4421,4.4311,4.4311,4.433,4.4501,4.4522,4.4537,4.4404,4.4406,4.4408,4.45,0,4.4193,4.4266,4.425,4.4321,4.4353,4.4319,4.4355,4.4365,4.4362,4.4387,4.4382,4.4411,4.4375,4.4381,4.441,4.4406,4.4455,4.4399,4.4433,4.4434,4.443,4.4552,4.4574,4.4661,4.4512,4.4514,4.4515,0,4.4312,4.4333,4.4407,4.4413,4.4426,4.4459,4.4479,4.4505,4.4515,4.451,4.4524,4.4503,4.4543,4.4497,4.4551,4.4513,4.4526,4.4526,4.4529,4.453,4.4478,4.4555,4.4688,4.47,4.4533,4.4532,4.4531,0,4.4401,4.4447,4.4497,4.4506,4.4514,4.4538,4.4542,4.455,4.4566,4.4584,4.4594,4.4616,4.4628,4.4645,4.463,4.4598,4.4686,4.4639,4.4681,4.4682,4.47,4.4698,4.4835,4.4711,4.4711,4.4711,4.4711,0,4.4507,4.4553,4.4537,4.4567,4.4618,4.4599,4.4649,4.465,4.4657,4.4686,4.4658,4.4686,4.4665,4.4691,4.4679,4.4724,4.473,4.4726,4.4722,4.4728,4.4728,4.4735,4.4728,4.4714,4.4714,4.4713,4.4712,0,4.4613,4.4605,4.4656,4.4661,4.4663,4.4699,4.4702,4.473,4.4724,4.4761,4.4769,4.476,4.4789,4.4776,4.4806,4.4798,4.4856,4.4845,4.4852,4.4849,4.4892,4.4887,4.5036,4.5053,4.492,4.4921,4.4923,0,4.4681,4.4715,4.4723,4.4741,4.4748,4.4777,4.4793,4.4776,4.4793,4.4808,4.4834,4.486,4.488,4.4927,4.4922,4.4945,4.4933,4.4983,4.4936,4.494,4.4931,4.4929,4.4931,4.4992,4.4994,4.4995,4.4996,0,4.48,4.4794,4.4819,4.4842,4.4862,4.4879,4.4894,4.491,4.4893,4.4914,4.4943,4.4959,4.4989,4.5015,4.5035,4.5038,4.5014,4.5011,4.5022,4.5027,4.503,4.5027,4.4876,4.5008,4.5006,4.5006,4.5005,4.5005,4.4888,4.4917,4.4927,4.4955,4.4964,4.4978,4.5004,4.5003,4.5027,4.5051,4.5039,4.5073,4.5082,4.5106,4.5112,4.5137,4.5117,4.5133,4.5137,4.5141,4.5145,4.5027,4.5141,4.5141,4.514,4.514,4.514,0,4.5005,4.501,4.5036,4.5057,4.5079,4.5056,4.5071,4.509,4.512,4.5131,4.5151,4.5184,4.5209,4.5207,4.523,4.525,4.524,4.5256,4.5254,4.5255,4.5163,4.5151,4.5264,4.5264,4.5264,4.5264,4.5264,4.5264,4.5068,4.5115,4.511,4.5162,4.5166,4.5199,4.5209,4.5222,4.523,4.5268,4.5289,4.5288,4.5293,4.5316,4.5337,4.5336,4.5344,4.5365,4.536,4.5274,4.5261,4.5249,4.5237,4.5368,4.5368,4.5449,4.5449,4.545]}]]